Flag for Canada Weather past 2 weeks in Richmond, British Columbia, Canada

Now
52 °F

Light rain. Overcast.


Feels Like: 47 °F
Forecast: 47 / 55 °F
Wind: 16 mph from Southeast

Location: Vancouver International Air-Port


UV Index: 0 (Low)

Visibility: 12 mi


Pressure: 29.72 "Hg

Humidity: 82%

Dew point: 46 °F

Location of RichmondLocation

Historic Weather in Richmond

°F

Richmond temperature yesterday

Maximum temperature yesterday: 55 °F (at 3:00 PM)
Minimum temperature yesterday: 45 °F (at 12:00 AM)
Average temperature yesterday: 49 °F

Past Weeks' High & Low Weather Summary

 TemperatureHumidityPressure
High61 °F (Apr 14, 3:00 PM)100% (Apr 17, 4:00 AM)30.35 "Hg (Apr 17, 4:00 AM)
Low37 °F (Apr 14, 5:00 AM)41% (Apr 13, 10:00 PM)29.56 "Hg (Apr 24, 4:00 AM)
Average50 °F76%30.02 "Hg
* Reported Apr 9 11:00 AM — Apr 24 11:00 AM, Richmond, Weather by CustomWeather, © 2014

Note: Actual official high and low records may vary slightly from our data, if they occured in-between our weather recording intervals... More about our weather records

Advertising

Historic Weather Conditions — Data for Previous 24 hours

 ConditionsComfort  
Time TempWeatherWind HumidityBarometerVisibility
11:00 AM
Apr 24
52 °FLight rain. Mostly cloudy.7 mph77%29.70 "Hg15 mi
10:56 AM52 °FLight rain. Mostly cloudy.9 mph77%29.70 "Hg15 mi
10:00 AM52 °FBroken clouds.16 mph82%29.67 "Hg15 mi
9:00 AM48 °FBroken clouds.17 mph87%29.64 "Hg15 mi
8:00 AM46 °FPartly sunny.16 mph93%29.61 "Hg15 mi
7:00 AM45 °FOvercast.13 mph93%29.58 "Hg15 mi
6:00 AM45 °FLight rain. Mostly cloudy.15 mph93%29.57 "Hg8 mi
5:00 AM46 °FLight rain. Overcast.18 mph87%29.57 "Hg8 mi
4:00 AM46 °FOvercast.18 mph87%29.56 "Hg12 mi
3:00 AM46 °FLight rain. Overcast.16 mph87%29.57 "Hg12 mi
2:00 AM46 °FRain. Overcast.21 mph87%29.58 "Hg4 mi
1:00 AM46 °FLight rain. Overcast.15 mph87%29.60 "Hg10 mi
12:00 AM48 °FLight rain. Overcast.16 mph87%29.63 "Hg12 mi
11:00 PM
Apr 23
48 °FLight rain. Overcast.12 mph87%29.66 "Hg15 mi
10:00 PM48 °FLight rain. Mostly cloudy.13 mph87%29.69 "Hg15 mi
9:00 PM52 °FLight rain. Mostly cloudy.14 mph72%29.71 "Hg15 mi
8:59 PM52 °FLight rain. Mostly cloudy.14 mph72%29.71 "Hg15 mi
8:00 PM52 °FOvercast.12 mph67%29.73 "Hg20 mi
7:00 PM54 °FMore clouds than sun.10 mph63%29.75 "Hg20 mi
6:00 PM54 °FOvercast.12 mph63%29.78 "Hg20 mi
5:00 PM55 °FPartly sunny.14 mph55%29.79 "Hg20 mi
4:00 PM55 °FOvercast.10 mph55%29.82 "Hg15 mi
3:00 PM55 °FMostly cloudy.8 mph55%29.85 "Hg15 mi
2:00 PM54 °FCloudy.7 mph63%29.86 "Hg15 mi
1:00 PM54 °FCloudy.12 mph63%29.88 "Hg15 mi
12:00 PM52 °FBroken clouds.9 mph72%29.88 "Hg15 mi
Weather by CustomWeather, © 2014

See weather overview